Location: Chandrammap?lem
(16.9200°N, 81.0051°E)
Time: 19:22:22
(UTC+00:00)

ASTEX 1 - Pass Details

Date: 29 May 2024
Orbit: 715 x 740 km, 92.7° (Epoch: 14 June)

Event Time Altitude Azimuth Distance (km) Brightness Sun altitude
Exits shadow 22:27:37 47° 237° (WSW) 965 3.5 -20.8°
Maximum altitude 22:28:19 51° 265° (W) 918 3.5 -20.7°
Drops below altitude 10° 22:33:04 10° 340° (NNW) 2,215 6.0 -19.7°
Sets 22:35:24 0° 346° (NNW) 3,133 6.9 -19.3°
